Regional Weather Roundup
Issued by NWS

Home | Current Version | Previous Version | Text Only | Print | Product List | Glossary On
Versions: 1 2 3 4 5 6 7 8 9 10 11 12 13 14 15 16 17 18 19 20 21 22 23 24 25 26 27 28 29 30 31 32 33 34 35 36 37 38 39 40 41 42 43 44 45 46 47 48 49 50
000
ASUS43 KLSX 250857
RWRMO

WEATHER SUMMARY FOR MISSOURI
NATIONAL WEATHER SERVICE SPRINGFIELD MO
400 AM CDT WED MAY 25 2016

NOTE: "FAIR" INDICATES FEW OR NO CLOUDS BELOW 12,000 FEET WITH NO
       SIGNIFICANT WEATHER AND/OR OBSTRUCTIONS TO VISIBILITY.
       CURRENT SKY AND/OR WEATHER CONDITIONS ARE NOT AVAILABLE FOR
       CHILLICOTHE AND FARMINGTON.

MOZ001>031-035>038-043-044-053-054-251000-
...NORTHERN AND WESTERN MISSOURI...

CITY           SKY/WX    TMP DP  RH WIND       PRES   REMARKS
KANSAS CTY INT LGT RAIN  65  60  84 W14G23    29.88F
LEE`S SUMMIT   TSTM      65  62  90 S13       29.95S
ST JOSEPH      LGT RAIN  66  61  84 SW18G24   29.88F
CHILLICOTHE      N/A     67  63  87 S6        29.90R

$$
MOZ066>068-077>081-088>096-101>105-251000-
...SOUTHWEST MISSOURI...

CITY           SKY/WX    TMP DP  RH WIND       PRES   REMARKS
SPRINGFIELD    CLOUDY    65  62  90 S8        29.97R
JOPLIN         TSTM      68  66  93 NE10      29.97R

$$
MOZ032>034-039>042-045>050-055>058-069>072-251000-
...CENTRAL MISSOURI...

CITY           SKY/WX    TMP DP  RH WIND       PRES   REMARKS
COLUMBIA       NOT AVBL
JEFFERSON CITY MOCLDY    62  60  93 E8        29.95S
ROLLA          CLOUDY    60  59  96 S7        29.97R
SEDALIA        CLOUDY    64  62  93 S7        29.93S
WARRENSBURG    RAIN      64  63  94 SW12G24   29.95R

$$
MOZ051-052-059>065-251000-
...EAST CENTRAL MISSOURI...

CITY           SKY/WX    TMP DP  RH WIND       PRES   REMARKS
ST LOUIS INTL  NOT AVBL

$$
MOZ072>076-082>087-097>100-106>115-251000-
...SOUTH CENTRAL AND SOUTHEAST MISSOURI...

CITY           SKY/WX    TMP DP  RH WIND       PRES   REMARKS
CAPE GIRARDEAU CLOUDY    62  61  96 SE5       30.00F
POPLAR BLUFF   CLOUDY    63  62  97 SE3       30.01R
WEST PLAINS    PTCLDY    59  56  89 CALM      30.02R

$$


USA.gov is the U.S. government's official web portal to all federal, state and local government web resources and services.